Time,TemperatureF,DewpointF,PressureIn,WindDirection,WindDirectionDegrees,WindSpeedMPH,WindSpeedGustMPH,Humidity,HourlyPrecipIn,Conditions,Clouds,dailyrainin,SoftwareType,DateUTC
2013-03-21 00:00:00,57.9,41.8,30.00,ENE,68,2.0,3.0,55,0.00,,,0.00,VWS V14.01,2013-03-21 05:00:00,
2013-03-21 00:30:00,58.4,41.8,29.99,ENE,68,2.0,6.0,54,0.00,,,0.00,VWS V14.01,2013-03-21 05:30:00,
2013-03-21 01:00:00,58.5,41.9,29.99,East,90,2.0,5.0,54,0.00,,,0.00,VWS V14.01,2013-03-21 06:00:00,
2013-03-21 01:30:00,59.1,43.9,29.97,ESE,112,2.0,5.0,57,0.00,,,0.00,VWS V14.01,2013-03-21 06:30:00,
2013-03-21 02:00:00,58.9,44.6,29.97,ESE,112,1.0,4.0,59,0.00,,,0.00,VWS V14.01,2013-03-21 07:00:00,
2013-03-21 02:30:00,58.4,44.6,29.96,SSE,158,1.0,3.0,60,0.00,,,0.00,VWS V14.01,2013-03-21 07:30:00,
2013-03-21 03:00:00,56.8,44.3,29.95,SE,135,0.0,3.0,63,0.00,,,0.00,VWS V14.01,2013-03-21 08:00:00,
2013-03-21 03:30:00,56.6,44.6,29.95,SE,135,0.0,0.0,64,0.00,,,0.00,VWS V14.01,2013-03-21 08:30:00,
2013-03-21 04:00:00,55.3,43.8,29.93,SSW,202,0.0,2.0,65,0.00,,,0.00,VWS V14.01,2013-03-21 09:00:00,
2013-03-21 04:30:00,54.6,43.5,29.92,SE,135,0.0,2.0,66,0.00,,,0.00,VWS V14.01,2013-03-21 09:30:00,
2013-03-21 05:00:00,54.4,43.3,29.91,SSW,202,0.0,2.0,66,0.00,,,0.00,VWS V14.01,2013-03-21 10:00:00,
2013-03-21 05:30:00,54.2,44.3,29.91,SW,225,1.0,3.0,69,0.00,,,0.00,VWS V14.01,2013-03-21 10:30:00,
2013-03-21 06:00:00,55.1,45.1,29.90,SSW,202,2.0,5.0,69,0.00,,,0.00,VWS V14.01,2013-03-21 11:00:00,
2013-03-21 06:30:00,55.2,46.0,29.89,SSW,202,2.0,5.0,71,0.00,,,0.00,VWS V14.01,2013-03-21 11:30:00,
2013-03-21 07:00:00,54.7,46.6,29.89,SSW,202,1.0,4.0,74,0.00,,,0.00,VWS V14.01,2013-03-21 12:00:00,
2013-03-21 07:30:00,53.6,46.9,29.90,SSW,202,0.0,3.0,78,0.00,,,0.00,VWS V14.01,2013-03-21 12:30:00,
2013-03-21 08:00:00,52.8,46.8,29.88,SW,225,0.0,1.0,80,0.00,,,0.00,VWS V14.01,2013-03-21 13:00:00,
2013-03-21 08:30:00,54.8,48.4,29.88,SSE,158,1.0,4.0,79,0.00,,,0.00,VWS V14.01,2013-03-21 13:30:00,
2013-03-21 09:00:00,57.7,51.6,29.88,SSE,158,2.0,8.0,80,0.00,,,0.00,VWS V14.01,2013-03-21 14:00:00,
2013-03-21 09:30:00,59.9,53.4,29.88,SSE,158,4.0,11.0,79,0.00,,,0.00,VWS V14.01,2013-03-21 14:30:00,
2013-03-21 10:00:00,60.7,54.8,29.87,South,180,5.0,13.0,81,0.00,,,0.00,VWS V14.01,2013-03-21 15:00:00,
2013-03-21 10:30:00,63.4,55.7,29.86,SSE,158,5.0,13.0,76,0.00,,,0.00,VWS V14.01,2013-03-21 15:30:00,
2013-03-21 11:00:00,64.9,56.0,29.85,SE,135,6.0,14.0,73,0.00,,,0.00,VWS V14.01,2013-03-21 16:00:00,
2013-03-21 11:30:00,67.1,55.8,29.84,SSE,158,6.0,16.0,67,0.00,,,0.00,VWS V14.01,2013-03-21 16:30:00,
2013-03-21 12:00:00,68.9,55.4,29.82,SSE,158,7.0,17.0,62,0.00,,,0.00,VWS V14.01,2013-03-21 17:00:00,
2013-03-21 12:30:00,69.8,54.8,29.81,SSW,202,8.0,15.0,59,0.00,,,0.00,VWS V14.01,2013-03-21 17:30:00,
2013-03-21 13:00:00,72.4,55.8,29.78,SSE,158,8.0,19.0,56,0.00,,,0.00,VWS V14.01,2013-03-21 18:00:00,
2013-03-21 13:30:00,71.8,56.2,29.77,SSE,158,8.0,24.0,58,0.00,,,0.00,VWS V14.01,2013-03-21 18:30:00,
2013-03-21 14:00:00,71.8,56.7,29.74,SSE,158,7.0,18.0,59,0.00,,,0.00,VWS V14.01,2013-03-21 19:00:00,
2013-03-21 14:30:00,72.6,57.0,29.72,SSW,202,7.0,17.0,58,0.00,,,0.00,VWS V14.01,2013-03-21 19:30:00,
2013-03-21 15:00:00,72.9,57.3,29.70,SSE,158,8.0,17.0,58,0.00,,,0.00,VWS V14.01,2013-03-21 20:00:00,
2013-03-21 15:30:00,73.1,57.5,29.68,SSW,202,7.0,16.0,58,0.00,,,0.00,VWS V14.01,2013-03-21 20:30:00,
2013-03-21 16:27:00,74.4,58.2,29.65,SW,221,6.0,7.0,57,0.00,,,0.00,VWS V14.01,2013-03-21 21:27:00,
2013-03-21 16:32:00,74.6,57.9,29.65,South,187,6.0,11.0,56,0.00,,,0.00,VWS V14.01,2013-03-21 21:32:00,
2013-03-21 16:37:00,74.7,58.5,29.64,SSW,193,4.0,13.0,57,0.00,,,0.00,VWS V14.01,2013-03-21 21:37:00,
2013-03-21 16:42:00,75.5,58.7,29.63,South,183,5.0,13.0,56,0.00,,,0.00,VWS V14.01,2013-03-21 21:42:00,
2013-03-21 16:47:00,75.6,58.3,29.63,South,172,7.0,17.0,55,0.00,,,0.00,VWS V14.01,2013-03-21 21:47:00,
2013-03-21 16:52:00,75.0,58.3,29.63,South,190,6.0,17.0,56,0.00,,,0.00,VWS V14.01,2013-03-21 21:52:00,
2013-03-21 16:57:00,74.7,58.0,29.63,SSW,195,11.0,17.0,56,0.00,,,0.00,VWS V14.01,2013-03-21 21:57:00,
2013-03-21 17:02:00,74.7,58.5,29.62,SSW,201,9.0,9.0,57,0.00,,,0.00,VWS V14.01,2013-03-21 22:02:00,
2013-03-21 17:07:00,74.6,58.4,29.62,WSW,243,4.0,17.0,57,0.00,,,0.00,VWS V14.01,2013-03-21 22:07:00,
2013-03-21 17:12:00,74.6,58.4,29.62,SSW,205,9.0,17.0,57,0.00,,,0.00,VWS V14.01,2013-03-21 22:12:00,
2013-03-21 17:17:00,74.5,58.8,29.62,SSE,159,4.0,17.0,58,0.00,,,0.00,VWS V14.01,2013-03-21 22:17:00,
2013-03-21 17:22:00,74.4,58.7,29.62,WNW,288,4.0,17.0,58,0.00,,,0.00,VWS V14.01,2013-03-21 22:22:00,
2013-03-21 17:27:00,74.4,58.7,29.61,SE,127,7.0,17.0,58,0.00,,,0.00,VWS V14.01,2013-03-21 22:27:00,
2013-03-21 17:32:00,74.2,59.0,29.61,WSW,245,5.0,14.0,59,0.00,,,0.00,VWS V14.01,2013-03-21 22:32:00,
2013-03-21 17:37:00,74.3,59.1,29.61,South,172,5.0,14.0,59,0.00,,,0.00,VWS V14.01,2013-03-21 22:37:00,
2013-03-21 17:42:00,74.4,59.2,29.61,SSW,210,4.0,14.0,59,0.00,,,0.00,VWS V14.01,2013-03-21 22:42:00,
2013-03-21 17:47:00,74.3,59.1,29.61,SW,226,3.0,14.0,59,0.00,,,0.00,VWS V14.01,2013-03-21 22:47:00,
2013-03-21 17:52:00,74.2,59.0,29.61,SSE,162,6.0,14.0,59,0.00,,,0.00,VWS V14.01,2013-03-21 22:52:00,
2013-03-21 17:57:00,74.5,59.2,29.61,SE,134,6.0,14.0,59,0.00,,,0.00,VWS V14.01,2013-03-21 22:57:00,
2013-03-21 18:02:00,74.6,59.3,29.61,SE,124,4.0,11.0,59,0.00,,,0.00,VWS V14.01,2013-03-21 23:02:00,
2013-03-21 18:07:00,74.8,59.5,29.61,NNE,13,7.0,12.0,59,0.00,,,0.00,VWS V14.01,2013-03-21 23:07:00,
2013-03-21 18:12:00,74.6,59.3,29.61,South,177,5.0,13.0,59,0.00,,,0.00,VWS V14.01,2013-03-21 23:12:00,
2013-03-21 18:17:00,74.2,59.0,29.61,South,176,9.0,14.0,59,0.00,,,0.00,VWS V14.01,2013-03-21 23:17:00,
2013-03-21 18:22:00,74.1,59.3,29.61,SSW,198,9.0,14.0,60,0.00,,,0.00,VWS V14.01,2013-03-21 23:22:00,
2013-03-21 18:27:00,74.2,59.4,29.61,SSW,194,4.0,15.0,60,0.00,,,0.00,VWS V14.01,2013-03-21 23:27:00,
2013-03-21 18:32:00,74.4,59.6,29.61,South,191,9.0,13.0,60,0.00,,,0.00,VWS V14.01,2013-03-21 23:32:00,
2013-03-21 18:37:00,74.2,59.4,29.61,SSE,162,3.0,13.0,60,0.00,,,0.00,VWS V14.01,2013-03-21 23:37:00,
2013-03-21 18:42:00,74.2,59.4,29.61,South,191,7.0,13.0,60,0.00,,,0.00,VWS V14.01,2013-03-21 23:42:00,
2013-03-21 18:47:00,74.2,59.4,29.61,SSE,153,4.0,13.0,60,0.00,,,0.00,VWS V14.01,2013-03-21 23:47:00,
2013-03-21 18:52:00,73.9,59.6,29.61,SSE,165,3.0,13.0,61,0.00,,,0.00,VWS V14.01,2013-03-21 23:52:00,
2013-03-21 18:57:00,73.7,59.4,29.60,South,171,7.0,13.0,61,0.00,,,0.00,VWS V14.01,2013-03-21 23:57:00,
2013-03-21 19:02:00,73.6,59.3,29.61,South,177,7.0,9.0,61,0.00,,,0.00,VWS V14.01,2013-03-22 00:02:00,
2013-03-21 19:07:00,73.5,59.2,29.61,SE,127,8.0,13.0,61,0.00,,,0.00,VWS V14.01,2013-03-22 00:07:00,
2013-03-21 19:12:00,73.6,59.3,29.61,SW,231,7.0,15.0,61,0.00,,,0.00,VWS V14.01,2013-03-22 00:12:00,
2013-03-21 19:17:00,73.5,59.2,29.61,SW,231,5.0,15.0,61,0.00,,,0.00,VWS V14.01,2013-03-22 00:17:00,
2013-03-21 19:22:00,73.3,59.0,29.61,South,173,4.0,15.0,61,0.00,,,0.00,VWS V14.01,2013-03-22 00:22:00,
2013-03-21 19:27:00,73.1,59.3,29.61,SSE,152,6.0,15.0,62,0.00,,,0.00,VWS V14.01,2013-03-22 00:27:00,
2013-03-21 19:32:00,73.0,59.2,29.61,South,181,9.0,12.0,62,0.00,,,0.00,VWS V14.01,2013-03-22 00:32:00,
2013-03-21 19:37:00,72.8,59.5,29.61,SE,143,6.0,12.0,63,0.00,,,0.00,VWS V14.01,2013-03-22 00:37:00,
2013-03-21 19:42:00,72.6,59.3,29.61,SW,232,6.0,12.0,63,0.00,,,0.00,VWS V14.01,2013-03-22 00:42:00,
2013-03-21 19:47:00,72.5,59.2,29.61,SSE,154,9.0,12.0,63,0.00,,,0.00,VWS V14.01,2013-03-22 00:47:00,
2013-03-21 19:52:00,72.4,59.1,29.62,SSE,157,5.0,12.0,63,0.00,,,0.00,VWS V14.01,2013-03-22 00:52:00,
2013-03-21 19:57:00,72.2,59.4,29.62,SSE,165,7.0,14.0,64,0.00,,,0.00,VWS V14.01,2013-03-22 00:57:00,
2013-03-21 20:02:00,72.0,59.6,29.62,SSE,150,3.0,9.0,65,0.00,,,0.00,VWS V14.01,2013-03-22 01:02:00,
2013-03-21 20:07:00,71.6,59.2,29.61,SSE,153,4.0,9.0,65,0.00,,,0.00,VWS V14.01,2013-03-22 01:07:00,
2013-03-21 20:12:00,71.3,59.4,29.61,SSE,155,1.0,9.0,66,0.00,,,0.00,VWS V14.01,2013-03-22 01:12:00,
2013-03-21 20:17:00,71.1,59.2,29.61,SE,143,1.0,9.0,66,0.00,,,0.00,VWS V14.01,2013-03-22 01:17:00,
2013-03-21 20:22:00,70.8,59.3,29.61,SSE,150,6.0,9.0,67,0.00,,,0.00,VWS V14.01,2013-03-22 01:22:00,
2013-03-21 20:27:00,70.6,59.5,29.62,WSW,238,2.0,9.0,68,0.00,,,0.00,VWS V14.01,2013-03-22 01:27:00,
2013-03-21 20:32:00,70.5,59.8,29.63,ENE,78,9.0,12.0,69,0.00,,,0.00,VWS V14.01,2013-03-22 01:32:00,
2013-03-21 20:37:00,70.4,59.8,29.64,South,191,3.0,12.0,69,0.00,,,0.00,VWS V14.01,2013-03-22 01:37:00,
2013-03-21 20:42:00,70.3,59.7,29.64,SE,143,4.0,12.0,69,0.00,,,0.00,VWS V14.01,2013-03-22 01:42:00,
2013-03-21 20:47:00,70.2,60.0,29.63,SW,228,7.0,12.0,70,0.00,,,0.00,VWS V14.01,2013-03-22 01:47:00,
2013-03-21 20:52:00,70.0,59.8,29.63,SSW,197,3.0,12.0,70,0.00,,,0.00,VWS V14.01,2013-03-22 01:52:00,
2013-03-21 20:57:00,69.8,59.6,29.64,SE,133,3.0,12.0,70,0.00,,,0.00,VWS V14.01,2013-03-22 01:57:00,
2013-03-21 21:02:00,69.7,59.9,29.64,ESE,105,3.0,9.0,71,0.00,,,0.00,VWS V14.01,2013-03-22 02:02:00,
2013-03-21 21:07:00,69.6,59.8,29.64,SE,139,2.0,9.0,71,0.00,,,0.00,VWS V14.01,2013-03-22 02:07:00,
2013-03-21 21:12:00,69.5,59.7,29.64,SSE,152,4.0,9.0,71,0.00,,,0.00,VWS V14.01,2013-03-22 02:12:00,
2013-03-21 21:17:00,69.5,59.7,29.65,SE,144,2.0,10.0,71,0.00,,,0.00,VWS V14.01,2013-03-22 02:17:00,
2013-03-21 21:22:00,69.4,59.6,29.64,SSE,156,4.0,10.0,71,0.00,,,0.00,VWS V14.01,2013-03-22 02:22:00,
2013-03-21 21:27:00,69.2,59.4,29.64,South,182,4.0,10.0,71,0.00,,,0.00,VWS V14.01,2013-03-22 02:27:00,
2013-03-21 21:32:00,69.1,59.3,29.64,SE,139,4.0,9.0,71,0.00,,,0.00,VWS V14.01,2013-03-22 02:32:00,
2013-03-21 21:37:00,68.9,59.5,29.64,SE,143,3.0,10.0,72,0.00,,,0.00,VWS V14.01,2013-03-22 02:37:00,
2013-03-21 21:42:00,68.6,59.2,29.65,South,188,5.0,10.0,72,0.00,,,0.00,VWS V14.01,2013-03-22 02:42:00,
2013-03-21 21:47:00,68.5,59.5,29.65,South,174,3.0,10.0,73,0.00,,,0.00,VWS V14.01,2013-03-22 02:47:00,
2013-03-21 21:52:00,68.3,59.3,29.65,SSE,164,6.0,10.0,73,0.00,,,0.00,VWS V14.01,2013-03-22 02:52:00,
2013-03-21 21:57:00,68.1,59.5,29.65,SE,132,4.0,10.0,74,0.00,,,0.00,VWS V14.01,2013-03-22 02:57:00,
2013-03-21 22:02:00,67.8,59.6,29.65,SSE,148,2.0,8.0,75,0.00,,,0.00,VWS V14.01,2013-03-22 03:02:00,
2013-03-21 22:07:00,67.5,59.3,29.65,SSE,158,4.0,9.0,75,0.00,,,0.00,VWS V14.01,2013-03-22 03:07:00,
2013-03-21 22:12:00,67.3,59.5,29.65,South,176,4.0,9.0,76,0.00,,,0.00,VWS V14.01,2013-03-22 03:12:00,
2013-03-21 22:17:00,67.0,59.2,29.65,SE,133,3.0,9.0,76,0.00,,,0.00,VWS V14.01,2013-03-22 03:17:00,
2013-03-21 22:22:00,66.7,59.3,29.65,South,183,3.0,9.0,77,0.00,,,0.00,VWS V14.01,2013-03-22 03:22:00,
2013-03-21 22:27:00,66.5,59.4,29.65,ESE,117,2.0,9.0,78,0.00,,,0.00,VWS V14.01,2013-03-22 03:27:00,
2013-03-21 22:32:00,66.3,59.2,29.66,South,177,1.0,5.0,78,0.00,,,0.00,VWS V14.01,2013-03-22 03:32:00,
2013-03-21 22:38:00,66.0,59.3,29.66,SE,141,4.0,6.0,79,0.00,,,0.00,VWS V14.01,2013-03-22 03:38:00,
2013-03-21 22:43:00,65.7,59.4,29.65,ESE,110,3.0,7.0,80,0.00,,,0.00,VWS V14.01,2013-03-22 03:43:00,
2013-03-21 22:47:00,65.5,59.2,29.65,ESE,113,2.0,7.0,80,0.00,,,0.00,VWS V14.01,2013-03-22 03:47:00,
2013-03-21 22:52:00,65.3,59.3,29.65,SSW,200,3.0,7.0,81,0.00,,,0.00,VWS V14.01,2013-03-22 03:52:00,
2013-03-21 22:57:00,65.1,59.5,29.65,ESE,122,5.0,7.0,82,0.00,,,0.00,VWS V14.01,2013-03-22 03:57:00,
2013-03-21 23:00:00,65.0,59.4,29.66,SSE,150,4.0,8.0,82,0.00,,,0.00,VWS V14.01,2013-03-22 04:00:00,
2013-03-21 23:05:00,64.9,59.6,29.65,South,176,2.0,6.0,83,0.00,,,0.00,VWS V14.01,2013-03-22 04:05:00,
2013-03-21 23:10:00,64.8,59.9,29.65,SSW,196,3.0,7.0,84,0.00,,,0.00,VWS V14.01,2013-03-22 04:10:00,
2013-03-21 23:15:00,64.8,59.9,29.65,SE,135,4.0,8.0,84,0.00,,,0.00,VWS V14.01,2013-03-22 04:15:00,
2013-03-21 23:20:00,64.7,60.1,29.65,SSE,148,5.0,8.0,85,0.00,,,0.00,VWS V14.01,2013-03-22 04:20:00,
2013-03-21 23:25:00,64.8,60.2,29.65,SSE,159,5.0,10.0,85,0.00,,,0.00,VWS V14.01,2013-03-22 04:25:00,
2013-03-21 23:30:00,64.8,60.2,29.65,SE,146,5.0,5.0,85,0.00,,,0.00,VWS V14.01,2013-03-22 04:30:00,
2013-03-21 23:35:00,64.8,60.2,29.64,SSE,153,4.0,6.0,85,0.00,,,0.00,VWS V14.01,2013-03-22 04:35:00,
2013-03-21 23:40:00,64.7,60.4,29.65,SSE,158,3.0,8.0,86,0.00,,,0.00,VWS V14.01,2013-03-22 04:40:00,
2013-03-21 23:45:00,64.7,60.4,29.65,South,188,3.0,12.0,86,0.00,,,0.00,VWS V14.01,2013-03-22 04:45:00,
2013-03-21 23:50:00,64.7,60.4,29.65,SE,146,3.0,12.0,86,0.00,,,0.00,VWS V14.01,2013-03-22 04:50:00,
2013-03-21 23:55:00,64.7,60.4,29.65,SSE,149,6.0,12.0,86,0.00,,,0.00,VWS V14.01,2013-03-22 04:55:00,